Location: Ellingshausen
(50.5460°N, 10.4723°E)
Time: 07:04:41
(UTC+00:00)

Cosmos 1763 Rocket - Pass Details

Date: 18 January 2026
Orbit: 729 x 773 km, 74.0° (Epoch: 19 February)

Event Time Altitude Azimuth Distance (km) Brightness Sun altitude
Exits shadow 04:30:58 21° 354° (N) 1,610 5.1 -24.7°
Maximum altitude 04:34:05 48° 59° (ENE) 962 4.3 -24.3°
Drops below altitude 10° 04:38:59 10° 134° (SE) 2,239 6.6 -23.5°
Sets 04:41:24 0° 140° (SE) 3,164 7.3 -23.1°
